Meteo pe oră la Dahod

Astăzi, 10 Aprilie, Sâmbătă

Timp Temperatura Precipitaţii Vânt Presiune Umiditate
00:00 +30°C° 0 mm 3 m/s 730 mmHg 15%
01:00 +29°C° 0 mm 3 m/s 730 mmHg 19%
02:00 +28°C° 0 mm 3 m/s 730 mmHg 22%
03:00 +28°C° 0 mm 2 m/s 730 mmHg 25%
04:00 +27°C° 0 mm 2 m/s 730 mmHg 27%
05:00 +27°C° 0 mm 1 m/s 730 mmHg 21%
06:00 +29°C° 0 mm 1 m/s 731 mmHg 19%
07:00 +30°C° 0 mm 1 m/s 732 mmHg 17%
08:00 +32°C° 0 mm 1 m/s 732 mmHg 15%
09:00 +33°C° 0 mm 1 m/s 732 mmHg 13%
10:00 +35°C° 0 mm 1 m/s 732 mmHg 12%
11:00 +39°C° 0 mm 1 m/s 732 mmHg 9%
12:00 +40°C° 0 mm 2 m/s 732 mmHg 8%
13:00 +41°C° 0 mm 2 m/s 731 mmHg 8%
14:00 +43°C° 0 mm 3 m/s 730 mmHg 8%
15:00 +43°C° 0 mm 4 m/s 730 mmHg 7%
16:00 +42°C° 0 mm 4 m/s 730 mmHg 7%
17:00 +42°C° 0 mm 5 m/s 730 mmHg 7%
18:00 +40°C° 0 mm 4 m/s 730 mmHg 9%
19:00 +37°C° 0 mm 4 m/s 731 mmHg 10%
20:00 +35°C° 0 mm 3 m/s 731 mmHg 12%
21:00 +34°C° 0 mm 3 m/s 731 mmHg 12%
22:00 +33°C° 0 mm 3 m/s 731 mmHg 13%
23:00 +33°C° 0 mm 3 m/s 731 mmHg 13%

Mâine, 11 Aprilie, Duminică

Timp Temperatura Precipitaţii Vânt Presiune Umiditate
00:00 +31°C° 0 mm 3 m/s 731 mmHg 12%
01:00 +30°C° 0 mm 3 m/s 731 mmHg 12%
02:00 +29°C° 0 mm 2 m/s 731 mmHg 11%
03:00 +29°C° 0 mm 2 m/s 731 mmHg 11%
04:00 +28°C° 0 mm 2 m/s 731 mmHg 12%
05:00 +28°C° 0 mm 1 m/s 731 mmHg 12%
06:00 +29°C° 0 mm 2 m/s 732 mmHg 12%
07:00 +31°C° 0 mm 2 m/s 732 mmHg 11%
08:00 +34°C° 0 mm 3 m/s 733 mmHg 10%
09:00 +36°C° 0 mm 3 m/s 733 mmHg 9%
10:00 +38°C° 0 mm 3 m/s 733 mmHg 8%
11:00 +42°C° 0 mm 3 m/s 733 mmHg 7%
12:00 +42°C° 0 mm 4 m/s 732 mmHg 7%
13:00 +43°C° 0 mm 5 m/s 732 mmHg 7%
14:00 +43°C° 0 mm 5 m/s 731 mmHg 8%
15:00 +43°C° 0 mm 5 m/s 731 mmHg 8%
16:00 +42°C° 0 mm 5 m/s 730 mmHg 8%
17:00 +42°C° 0 mm 6 m/s 730 mmHg 8%
18:00 +40°C° 0 mm 5 m/s 731 mmHg 10%
19:00 +37°C° 0 mm 4 m/s 731 mmHg 12%
20:00 +35°C° 0 mm 4 m/s 732 mmHg 13%
21:00 +35°C° 0 mm 4 m/s 732 mmHg 14%
22:00 +34°C° 0 mm 4 m/s 732 mmHg 15%
23:00 +33°C° 0 mm 4 m/s 732 mmHg 15%

Poimâine, 12 Aprilie, Luni

Timp Temperatura Precipitaţii Vânt Presiune Umiditate
00:00 +32°C° 0 mm 4 m/s 732 mmHg 18%
01:00 +30°C° 0 mm 3 m/s 732 mmHg 20%
02:00 +29°C° 0 mm 3 m/s 731 mmHg 23%
03:00 +28°C° 0 mm 3 m/s 732 mmHg 23%
04:00 +28°C° 0 mm 3 m/s 732 mmHg 24%
05:00 +27°C° 0 mm 3 m/s 732 mmHg 24%
06:00 +29°C° 0 mm 3 m/s 732 mmHg 24%
07:00 +30°C° 0 mm 4 m/s 733 mmHg 23%
08:00 +33°C° 0 mm 4 m/s 734 mmHg 23%
09:00 +36°C° 0 mm 4 m/s 734 mmHg 18%
10:00 +39°C° 0 mm 5 m/s 733 mmHg 14%
11:00 +42°C° 0 mm 5 m/s 733 mmHg 10%
12:00 +42°C° 0 mm 5 m/s 733 mmHg 10%
13:00 +43°C° 0 mm 5 m/s 732 mmHg 9%
14:00 +45°C° 0 mm 6 m/s 731 mmHg 8%
15:00 +44°C° 0 mm 6 m/s 731 mmHg 8%
16:00 +44°C° 0 mm 6 m/s 730 mmHg 8%
17:00 +44°C° 0 mm 6 m/s 730 mmHg 8%
18:00 +40°C° 0 mm 5 m/s 730 mmHg 9%
19:00 +37°C° 0 mm 4 m/s 731 mmHg 10%
20:00 +35°C° 0 mm 3 m/s 731 mmHg 11%
21:00 +34°C° 0 mm 3 m/s 731 mmHg 12%
22:00 +33°C° 0 mm 3 m/s 732 mmHg 13%
23:00 +31°C° 0 mm 3 m/s 732 mmHg 14%

13 Aprilie, Marţi

Timp Temperatura Precipitaţii Vânt Presiune Umiditate
00:00 +30°C° 0 mm 3 m/s 732 mmHg 16%
01:00 +30°C° 0 mm 3 m/s 732 mmHg 19%
02:00 +29°C° 0 mm 3 m/s 731 mmHg 21%
03:00 +28°C° 0 mm 2 m/s 731 mmHg 21%
04:00 +28°C° 0 mm 2 m/s 731 mmHg 20%
05:00 +27°C° 0 mm 2 m/s 731 mmHg 20%
06:00 +29°C° 0 mm 2 m/s 732 mmHg 19%
07:00 +31°C° 0 mm 3 m/s 733 mmHg 19%
08:00 +34°C° 0 mm 3 m/s 734 mmHg 18%
09:00 +36°C° 0 mm 4 m/s 733 mmHg 15%
10:00 +40°C° 0 mm 4 m/s 733 mmHg 13%
11:00 +42°C° 0 mm 4 m/s 733 mmHg 10%
12:00 +43°C° 0 mm 4 m/s 732 mmHg 9%
13:00 +44°C° 0 mm 4 m/s 732 mmHg 8%
14:00 +44°C° 0 mm 3 m/s 731 mmHg 6%
15:00 +44°C° 0 mm 4 m/s 730 mmHg 7%
16:00 +44°C° 0 mm 4 m/s 730 mmHg 7%
17:00 +43°C° 0 mm 4 m/s 730 mmHg 7%
18:00 +41°C° 0 mm 4 m/s 730 mmHg 9%
19:00 +38°C° 0 mm 4 m/s 730 mmHg 11%
20:00 +36°C° 0 mm 4 m/s 731 mmHg 13%
21:00 +35°C° 0 mm 4 m/s 731 mmHg 14%
22:00 +34°C° 0 mm 4 m/s 731 mmHg 15%
23:00 +33°C° 0 mm 4 m/s 732 mmHg 17%

14 Aprilie, Miercuri

Timp Temperatura Precipitaţii Vânt Presiune Umiditate
00:00 +31°C° 0 mm 3 m/s 731 mmHg 17%
01:00 +30°C° 0 mm 3 m/s 731 mmHg 18%
02:00 +29°C° 0 mm 2 m/s 731 mmHg 18%
03:00 +29°C° 0 mm 2 m/s 731 mmHg 20%
04:00 +28°C° 0 mm 2 m/s 731 mmHg 22%
05:00 +28°C° 0 mm 2 m/s 731 mmHg 23%
06:00 +29°C° 0 mm 3 m/s 732 mmHg 21%
07:00 +32°C° 0 mm 4 m/s 732 mmHg 19%
08:00 +33°C° 0 mm 5 m/s 733 mmHg 18%
09:00 +36°C° 0 mm 5 m/s 733 mmHg 16%
10:00 +39°C° 0 mm 5 m/s 733 mmHg 13%
11:00 +41°C° 0 mm 5 m/s 733 mmHg 11%
12:00 +42°C° 0 mm 5 m/s 733 mmHg 11%
13:00 +42°C° 0 mm 6 m/s 732 mmHg 10%
14:00 +44°C° 0 mm 6 m/s 731 mmHg 10%
15:00 +42°C° 0 mm 6 m/s 731 mmHg 11%
16:00 +43°C° 0 mm 7 m/s 730 mmHg 11%
17:00 +41°C° 0 mm 7 m/s 730 mmHg 12%
18:00 +39°C° 0 mm 6 m/s 730 mmHg 14%
19:00 +36°C° 0 mm 4 m/s 731 mmHg 16%
20:00 +34°C° 0 mm 3 m/s 731 mmHg 18%
21:00 +34°C° 0 mm 4 m/s 731 mmHg 21%
22:00 +33°C° 0 mm 4 m/s 732 mmHg 24%
23:00 +32°C° 0 mm 5 m/s 732 mmHg 27%

15 Aprilie, Joi

Timp Temperatura Precipitaţii Vânt Presiune Umiditate
00:00 +32°C° 0 mm 4 m/s 731 mmHg 28%
01:00 +30°C° 0 mm 3 m/s 731 mmHg 29%
02:00 +30°C° 0 mm 3 m/s 730 mmHg 30%
03:00 +29°C° 0 mm 3 m/s 731 mmHg 31%
04:00 +28°C° 0 mm 2 m/s 731 mmHg 33%
05:00 +27°C° 0 mm 2 m/s 731 mmHg 34%
06:00 +29°C° 0 mm 3 m/s 732 mmHg 32%
07:00 +30°C° 0 mm 3 m/s 732 mmHg 30%
08:00 +32°C° 0 mm 4 m/s 733 mmHg 27%
09:00 +34°C° 0 mm 4 m/s 733 mmHg 24%
10:00 +36°C° 0 mm 4 m/s 733 mmHg 20%
11:00 +38°C° 0 mm 4 m/s 733 mmHg 17%
12:00 +40°C° 0 mm 4 m/s 732 mmHg 16%
13:00 +41°C° 0 mm 4 m/s 732 mmHg 15%
14:00 +42°C° 0 mm 4 m/s 731 mmHg 14%
15:00 +42°C° 0 mm 5 m/s 730 mmHg 14%
16:00 +41°C° 0 mm 6 m/s 730 mmHg 14%
17:00 +41°C° 0 mm 7 m/s 729 mmHg 14%
18:00 +39°C° 0 mm 6 m/s 730 mmHg 15%
19:00 +36°C° 0 mm 5 m/s 730 mmHg 17%
20:00 +34°C° 0 mm 4 m/s 730 mmHg 19%
21:00 +33°C° 0 mm 4 m/s 731 mmHg 23%
22:00 +32°C° 0 mm 4 m/s 731 mmHg 27%
23:00 +30°C° 0 mm 4 m/s 731 mmHg 32%
Arată mai mult

Formular de consimțământ

Meteoprog și furnizorii noștri de servicii pot stoca și accesa date personale, precum cookies, identificatori de dispozitiv sau alte tehnologii similare pe dispozitivul dumneavoastră și procesa astfel de date pentru a personaliza conținutul și reclamele, dar și pentru a oferi caracteristici de social media și pentru a analiza traficul.

  • Stocarea și/sau accesarea informațiilor pe dispozitivul dumneavoastră

    Cookies, identificatori de dispozitiv sau alte informații pot fi stocate sau accesate pe dispozitiv în scopurile indicate mai sus.

  • Reclame și conținut personalizat, evaluarea reclamelor și a conținutului, informații despre audiențe și dezvoltarea produselor

    Reclamele și conținutul pot fi personalizate pe baza unui profil. Pot fi adăugate date suplimentare pentru a personaliza mai bine reclamele și conținutul. Performanța reclamelor și conținutului poate fi măsurată. Pot fi obținute informații despre utilizatorii care au văzut reclamele și conținutul. Aceste date pot fi utilizate pentru a dezvolta sau îmbunătăți experiența utilizatorilor, sistemele și software-ul.

Dând clic pe ‘Sunt de acord’, permiteți utilizarea cookie-urilor menționate, a identificatorilor de dispozitiv, balizelor web sau altor tehnologii similare. Setările pot fi modificate din browser-ul dispozitivului dumneavoastră.

În anumite scopuri, interesele legitime pot prima asupra consimțământului. Puteți citi mai multe informații în acest sens în Politica privind Confidențialitatea Datelor și Cookie.